Regional Weather Roundup
Issued by NWS

Home | Current Version | Previous Version | Text Only | Print | Product List | Glossary Off
Versions: 1 2 3 4 5 6 7 8 9 10 11 12 13 14 15 16 17 18 19 20 21 22 23 24 25 26 27 28 29 30 31 32 33 34 35 36 37 38 39 40 41 42 43 44 45 46 47 48 49 50

000
ASUS43 KBIS 260720
RWRND

NORTH DAKOTA REGIONAL WEATHER ROUNDUP
NATIONAL WEATHER SERVICE BISMARCK ND
100 AM CST WED NOV 26 2014

NOTE: "FAIR" INDICATES FEW OR NO CLOUDS BELOW 12,000 FEET WITH NO
SIGNIFICANT WEATHER AND/OR OBSTRUCTIONS TO VISIBILITY.


NDZ001>003-009>011-017-260800-
NORTHWEST NORTH DAKOTA

CITY           SKY/WX    TMP DP  RH WIND       PRES   REMARKS
WILLISTON      CLOUDY    16  10  77 CALM      30.22R
MINOT          CLOUDY     5   0  79 NW7       30.21R HAZE    WCI  -7
MINOT AFB      CLOUDY     4   1  86 N6        30.22R WCI  -6
$$

NDZ018>021-031>035-040>046-260800-
SOUTHWEST NORTH DAKOTA

CITY           SKY/WX    TMP DP  RH WIND       PRES   REMARKS
BISMARCK       CLOUDY    15   9  76 N8        30.17R WCI   4
DICKINSON      CLOUDY    19  15  84 N10       30.13R WCI   7
GARRISON         N/A      8   4  83 N3        30.18R
HETTINGER ARPT CLOUDY    21  17  84 N12       30.14R WCI   9
$$

NDZ004>008-012>016-024-026-027-054-260800-
NORTHEAST NORTH DAKOTA

CITY           SKY/WX    TMP DP  RH WIND       PRES   REMARKS
GRAND FORKS    MOCLDY     9   3  78 N17       30.20R WCI -10
GRND FRKS AFB  CLOUDY     7   3  85 N14       30.20R WCI -10
DEVILS LAKE    PTCLDY     5  -8  56 N12       30.18R WCI -11
$$

NDZ022-023-025-028>030-036>039-047>053-260800-
SOUTHEAST NORTH DAKOTA

CITY           SKY/WX    TMP DP  RH WIND       PRES   REMARKS
FARGO          CLOUDY    18  13  80 N22       30.10R WCI   1
JAMESTOWN      LGT SNOW  12   7  80 N20       30.11R WCI  -6
$$



USA.gov is the U.S. government's official web portal to all federal, state and local government web resources and services.